{"data":{"norad_id":62234,"epoch":"2026-09-21T13:59:17.485728Z","epoch_age_seconds":84089,"freshness":"FRESH","line1":"1 62234U 24231S   26264.58284127  .00011147  00000+0  37024-3 0  9998","line2":"2 62234  53.1590  28.7911 0001018  94.6841 265.4276 15.31715250101769","mean_motion":15.3171525,"eccentricity":0.0001018,"inclination_deg":53.159,"raan_deg":28.7911,"arg_perigee_deg":94.6841,"mean_anomaly_deg":265.4276,"bstar":0.00037024,"rev_number":10176,"period_min":94.012251950877,"perigee_km":469.99732509598,"apogee_km":471.39174719674,"semimajor_km":6848.8315361464,"source":"CELESTRAK","updated_at":"2026-09-22T09:00:49.564705Z"}}